Simultaneous Nadir Overpasses (SNOs) Predictions

Prediction of SNOs between METOP-A and NOAA-19 Satellite Orbit:

Table of predicted SNOs for the next 14.0 days since TLE Epoch: 9/26/2020
Index Date (METOP-A) Time (METOP-A) Lat,Lon (METOP-A) SZA (METOP-A ) Date (NOAA-19) Time (NOAA-19) Lat,Lon (NOAA-19) SZA (NOAA-19 ) Distance(km) Time Diff (sec)
1 10/02/2020 00:15:15 80.72,-170.31 84.71 10/02/2020 00:14:10 80.70,-170.34 84.69 1.27 65
2 10/02/2020 01:05:57 -80.70, -3.20 95.31 10/02/2020 01:05:06 -80.70, -3.03 95.31 3.08 51
3 10/02/2020 01:56:37 80.71, 164.21 84.72 10/02/2020 01:56:10 80.70, 164.34 84.72 2.41 27
4 10/02/2020 02:47:18 -80.71, -28.33 95.26 10/02/2020 02:47:06 -80.70, -28.34 95.27 1.88 12
5 10/02/2020 03:37:59 80.70, 138.74 84.73 10/02/2020 03:38:11 80.70, 138.66 84.74 1.69 12
6 10/02/2020 04:28:40 -80.71, -53.80 95.24 10/02/2020 04:29:06 -80.69, -53.66 95.24 3.04 26
7 10/02/2020 05:19:21 80.69, 113.27 84.75 10/02/2020 05:20:11 80.70, 113.35 84.77 1.94 50
